This demonstration page uses our WeatherBlox Daily Observations layout. Learn more.

39.92423, -83.80882

Hourly Observations for September 13, 2016

Temp ( °F °C ) Dew Point ( °F °C ) Humidity (%) Winds ( mph kmh ) Pressure ( in mb ) Visibility ( mi km ) Precip ( " mm )
12:56 am 00:56 Clear 57 13.9 56 13.3 96 96 E 3 6 30.11 1020 10 16.0934 0 0
1:56 am 01:56 Clear 55 12.8 54 12.2 96 96 E 3 6 30.11 1020 10 16.0934 0 0
2:56 am 02:56 Clear 55 12.8 54 12.2 96 96 E 3 6 30.1 1019 7 11.26538 0 0
3:56 am 03:56 Clear 54 12.2 53 11.7 97 97 ESE 3 6 30.1 1019 10 16.0934 0 0
4:56 am 04:56 Clear 54 12.2 53 11.7 97 97 E 3 6 30.1 1019 10 16.0934 0 0
5:46 am 05:46 Clear with Mist and Fog 54 12 54 12 100 100 Calm 30.12 1020 1.75 2.816345 0 0
5:53 am 05:53 Clear with Mist and Fog 54 12 52 11 94 94 Calm 30.12 1020 3 4.82802 0 0
5:56 am 05:56 Clear 53 11.7 52 11.1 96 96 Calm 30.11 1020 7 11.26538 0 0
5:59 am 05:59 Clear with Mist and Fog 52 11 52 11 100 100 Calm 30.15 1021 1.75 2.816345 0 0
6:01 am 06:01 Clear with Mist and Fog 52 11 52 11 100 100 Calm 30.15 1021 0.75 1.207005 0 0
6:08 am 06:08 Clear with Fog 54 12 52 11 94 94 E 3 6 30.12 1020 0.5 0.80467 0 0
6:10 am 06:10 Clear with Mist and Fog 54 12 52 11 94 94 Calm 30.12 1020 1 1.60934 0 0
6:12 am 06:12 Clear with Mist and Fog 54 12 52 11 94 94 Calm 30.12 1020 4 6.43736 0 0
7:56 am 07:56 Sunny 53 11.7 51 10.6 93 93 ESE 3 6 30.13 1020 10 16.0934 0 0
8:56 am 08:56 Sunny 63 17.2 58 14.4 84 84 SSE 3 6 30.14 1021 10 16.0934 0 0
9:56 am 09:56 Sunny 67 19.4 60 15.6 79 79 SW 5 7 30.15 1021 10 16.0934 0 0
10:56 am 10:56 Sunny 72 22.2 61 16.1 68 68 WSW 3 6 30.16 1021 10 16.0934 0 0
11:56 am 11:56 Sunny 76 24.4 61 16.1 60 60 NW 6 9 30.16 1021 10 16.0934 0 0
12:56 pm 12:56 Sunny 78 25.6 58 14.4 50 50 VRB 6 9 30.14 1021 10 16.0934 0 0
1:56 pm 13:56 Sunny 79 26.1 56 13.3 45 45 W 6 9 30.14 1021 10 16.0934 0 0
2:56 pm 14:56 Sunny 78 25.6 57 13.9 48 48 SW 6 9 30.12 1020 10 16.0934 0 0
3:56 pm 15:56 Sunny 80 26.7 59 15 49 49 SW 5 7 30.11 1020 10 16.0934 0 0
4:56 pm 16:56 Sunny 80 26.7 59 15 49 49 SW 7 11 30.1 1019 10 16.0934 0 0
5:56 pm 17:56 Sunny 79 26.1 60 15.6 52 52 WSW 5 7 30.1 1019 10 16.0934 0 0
6:56 pm 18:56 Sunny 76 24.4 61 16.1 60 60 Calm 30.11 1020 10 16.0934 0 0
7:56 pm 19:56 Clear 72 22.2 59 15 64 64 S 3 6 30.11 1020 10 16.0934 0 0
8:56 pm 20:56 Clear 66 18.9 59 15 78 78 SSW 3 6 30.11 1020 10 16.0934 0 0
9:56 pm 21:56 Clear 62 16.7 59 15 90 90 Calm 30.12 1020 10 16.0934 0 0
10:56 pm 22:56 Clear 61 16.1 57 13.9 87 87 Calm 30.13 1020 10 16.0934 0 0
11:56 pm 23:56 Clear 61 16.1 58 14.4 90 90 Calm 30.13 1020 10 16.0934 0 0

Powered by AerisWeather